Weather History for Sandberg, CA

Change the Weather History Date:

Tuesday, May 7, 2013

  Actual Average Record
Temperature  
Mean Temperature 49 °F 56 °F  
Max Temperature 55 °F 65 °F 84 °F (2001)
Min Temperature 42 °F 47 °F 29 °F (1977)
Degree Days  
Heating Degree Days 16 10  
Month to date heating degree days 54 75  
Since 1 July heating degree days 2947 3850  
Cooling Degree Days 0 1  
Month to date cooling degree days 10 5  
Year to date cooling degree days 60 13  
Moisture  
Dew Point 40 °F    
Average Humidity 76    
Maximum Humidity 93    
Minimum Humidity 59    
Precipitation  
Precipitation 0.10 in 0.02 in 0.48 in (1955)
Month to date precipitation 0.28 0.15  
Year to date precipitation 2.81 8.16  
Since 1 July precipitation 4.18 12.01  
Sea Level Pressure  
Sea Level Pressure 30.01 in    
Wind  
Wind Speed 8 mph (West)    
Max Wind Speed 22 mph    
Max Gust Speed 28 mph    
Visibility 7 miles    
Events Fog , Rain    
T = Trace of Precipitation, MM = Missing Value Source: NWS Daily Summary

Daily Weather History Graph

Daily Weather History Graph

Search for Another Location

Airport:

Trip Planner

Search our weather history database for the weather conditions in past years. The results will help you decide how hot, cold, wet, or windy it might be!

Date:

Astronomy

May. 07, 2013 Rise Set
Actual Time 5:58 AM PDT 7:45 PM PDT
Civil Twilight 5:30 AM PDT 8:12 PM PDT
Nautical Twilight 4:57 AM PDT 8:45 PM PDT
Astronomical Twilight 4:22 AM PDT 9:20 PM PDT
Moon 4:30 AM PDT (5/7) 5:53 PM PDT (5/7)
Length of Visible Light 14h 41m
Length of Day
13h 46m
Waning Crescent, 5% of the Moon is Illuminated
May 7
Waning Crescent
May 9
New
May 17
First Quarter
May 24
Full
May 31
Last Quarter

Hourly Weather History & Observations

Time (PDT) Temp. Windchill Dew Point Humidity Pressure Visibility Wind Dir Wind Speed Gust Speed Precip Events Conditions
12:48 AM 43.0 °F 35.7 °F 37.0 °F 80% 29.95 in 10.0 mi SSW 15.0 mph - N/A   Clear
1:48 AM 43.0 °F 36.4 °F 37.0 °F 80% 29.94 in 10.0 mi SSW 12.7 mph - N/A   Clear
2:48 AM 43.0 °F 37.7 °F 37.0 °F 80% 29.94 in 10.0 mi SW 9.2 mph - N/A   Scattered Clouds
3:48 AM 43.0 °F 37.7 °F 37.0 °F 80% 29.93 in 10.0 mi SSW 9.2 mph - N/A   Scattered Clouds
4:18 AM 42.8 °F 38.0 °F 37.4 °F 81% 29.99 in 2.5 mi SW 8.1 mph - N/A   Haze
4:20 AM 42.8 °F 37.5 °F 37.4 °F 81% 29.99 in 1.0 mi SW 9.2 mph - N/A   Mist
4:24 AM 42.8 °F 38.0 °F 37.4 °F 81% 29.99 in 0.2 mi SSW 8.1 mph - N/A Fog Fog
4:48 AM 42.1 °F 37.1 °F 39.0 °F 89% 29.93 in 0.2 mi SSW 8.1 mph - N/A Fog Fog
5:48 AM - - - N/A% - - North - - N/A   Unknown
6:07 AM 42.8 °F 39.3 °F 39.2 °F 87% 30.00 in 0.2 mi SSW 5.8 mph - N/A Fog Fog
6:18 AM 42.8 °F 41.1 °F 39.2 °F 87% 30.01 in 1.0 mi SSW 3.5 mph - N/A   Overcast
6:26 AM 42.8 °F 40.1 °F 39.2 °F 87% 30.01 in 6.0 mi SW 4.6 mph - N/A   Overcast
6:29 AM 42.8 °F 41.1 °F 39.2 °F 87% 30.01 in 0.8 mi SW 3.5 mph - N/A   Overcast
6:33 AM 42.8 °F 40.1 °F 39.2 °F 87% 30.01 in 0.2 mi SW 4.6 mph - N/A Fog Fog
6:48 AM 42.8 °F 41.1 °F 39.2 °F 87% 29.95 in 0.2 mi SSW 3.5 mph - N/A Fog , Rain Light Rain
7:01 AM 42.8 °F 39.3 °F 39.2 °F 87% 30.01 in 0.2 mi SW 5.8 mph - 0.00 in Fog , Rain Light Rain
7:13 AM 42.8 °F 40.1 °F 39.2 °F 87% 30.02 in 0.2 mi West 4.6 mph - 0.00 in Fog Fog
7:20 AM 42.8 °F 39.3 °F 37.4 °F 81% 30.02 in 1.0 mi WNW 5.8 mph - 0.00 in Rain Light Rain
7:22 AM 42.8 °F 38.6 °F 37.4 °F 81% 30.02 in 3.0 mi WNW 6.9 mph - 0.00 in Rain Light Rain
7:48 AM 43.0 °F 38.8 °F 37.9 °F 82% 29.97 in 4.0 mi West 6.9 mph - 0.03 in Rain Light Rain
8:20 AM 42.8 °F 39.3 °F 37.4 °F 81% 30.04 in 4.0 mi West 5.8 mph - 0.03 in Rain Light Rain
8:48 AM 44.1 °F 40.8 °F 37.9 °F 79% 29.99 in 10.0 mi West 5.8 mph - 0.05 in   Overcast
9:40 AM 44.6 °F 42.2 °F 39.2 °F 81% 30.05 in 6.0 mi WNW 4.6 mph - 0.01 in   Haze
9:48 AM 45.0 °F 41.8 °F 39.0 °F 80% 30.00 in 9.0 mi NW 5.8 mph - 0.01 in   Overcast
9:56 AM 46.4 °F 42.9 °F 39.2 °F 76% 30.05 in 10.0 mi NW 6.9 mph - N/A   Overcast
10:12 AM 46.4 °F 43.5 °F 41.0 °F 81% 30.05 in 10.0 mi NNW 5.8 mph - N/A   Overcast
10:48 AM 48.9 °F - 41.0 °F 74% 29.99 in 10.0 mi West 5.8 mph - N/A   Overcast
11:15 AM 50.0 °F - 41.0 °F 71% 30.06 in 10.0 mi North 6.9 mph - N/A   Overcast
11:22 AM - - - N/A% - 10.0 mi NNW 4.6 mph - N/A   Mostly Cloudy
11:30 AM 50.0 °F - 39.2 °F 66% 30.06 in 10.0 mi Calm Calm - N/A   Overcast
11:48 AM 52.0 °F - 39.9 °F 63% 29.99 in 10.0 mi North 3.5 mph - N/A   Mostly Cloudy
12:39 PM 51.8 °F - 41.0 °F 67% 30.05 in 10.0 mi NNW 5.8 mph - N/A   Overcast
12:48 PM 52.0 °F - 41.0 °F 66% 29.98 in 10.0 mi North 8.1 mph - N/A   Overcast
1:17 PM 51.8 °F - 39.2 °F 62% 30.05 in 10.0 mi North 9.2 mph - N/A   Overcast
1:34 PM 53.6 °F - 41.0 °F 62% 30.05 in 10.0 mi Variable 5.8 mph - N/A   Overcast
1:39 PM 55.4 °F - 41.0 °F 58% 30.05 in 10.0 mi North 9.2 mph - N/A   Overcast
1:48 PM 54.0 °F - 39.9 °F 59% 29.98 in 10.0 mi NW 8.1 mph - N/A   Overcast
2:20 PM 53.6 °F - 41.0 °F 62% 30.05 in 10.0 mi Variable 6.9 mph 16.1 mph N/A   Mostly Cloudy
2:48 PM 52.0 °F - 39.0 °F 61% 29.98 in 10.0 mi Calm Calm - N/A   Overcast
3:48 PM 50.0 °F - 39.9 °F 68% 29.99 in 10.0 mi SW 6.9 mph - N/A   Overcast
4:48 PM 53.1 °F - 39.9 °F 61% 29.98 in 10.0 mi NW 11.5 mph - N/A   Overcast
5:31 PM 53.6 °F - 41.0 °F 62% 30.04 in 10.0 mi NNW 17.3 mph - N/A   Overcast
5:48 PM 54.0 °F - 41.0 °F 62% 29.97 in 10.0 mi NNW 13.8 mph 17.3 mph N/A   Overcast
6:48 PM 52.0 °F - 39.9 °F 63% 29.97 in 10.0 mi NNW 16.1 mph 25.3 mph N/A   Clear
7:48 PM 48.9 °F - 41.0 °F 74% 29.98 in 10.0 mi North 15.0 mph 19.6 mph N/A   Clear
8:17 PM 48.2 °F - 41.0 °F 76% 30.05 in 10.0 mi Variable 3.5 mph - N/A   Mostly Cloudy
8:48 PM 48.0 °F - 42.1 °F 80% 30.00 in 10.0 mi North 10.4 mph - N/A   Mostly Cloudy
8:53 PM 48.2 °F - 42.8 °F 82% 30.05 in 9.0 mi North 10.4 mph - N/A   Scattered Clouds
9:48 PM 46.9 °F - 41.0 °F 80% 30.01 in 10.0 mi NW 10.4 mph - N/A   Clear
10:03 PM 46.4 °F 45.2 °F 41.0 °F 81% 30.07 in 9.0 mi Variable 3.5 mph - N/A   Partly Cloudy
10:13 PM 46.4 °F 44.3 °F 41.0 °F 81% 30.07 in 9.0 mi SW 4.6 mph - N/A   Mostly Cloudy
10:31 PM 46.4 °F 42.9 °F 39.2 °F 76% 30.07 in 9.0 mi WSW 6.9 mph - N/A   Scattered Clouds
10:48 PM 46.0 °F 41.9 °F 41.0 °F 83% 30.01 in 9.0 mi West 8.1 mph - N/A   Clear
11:48 PM 46.9 °F - 39.0 °F 74% 30.01 in 10.0 mi Variable 3.5 mph - N/A   Partly Cloudy